CAPE
0 0 1 1 0 0 0 0 0 0 0 0 0 0 0 0 0 0 0 0 0 676 2381 2258 1837 1435 1285 1166 787 486 298 235
0 13 0 0 0 0 0 0 0 0 0 0 0 0 0 0 0 0 0 0 0 31 674 1645 1717 1601 1695 993 651 478 276 316
3 4 0 0 0 0 0 0 0 0 0 0 0 0 0 0 0 0 0 0 0 283 691 1239 1367 1062 1115 871 828 446 258 205
7 18 5 0 0 0 0 0 0 0 0 0 0 0 0 0 0 0 0 0 0 186 825 555 862 540 309 181 162 120 114 119
0 0 1 0 0 0 0 0 0 0 0 0 0 0 0 0 0 0 0 0 0 0 0 0 0 0 0 0 0 16 11 20
0 7 8 1 0 0 0 0 0 0 0 0 0 0 0 0 0 0 0 0 0 0 0 0 0 0 0 0 0 2 8 17
0 5 14 8 0 0 0 0 0 0 0 0 0 0 0 0 0 0 0 0 0 0 0 0 0 0 0 0 0 4 7 12
0 1 4 2 0 0 0 0 0 0 0 0 0 0 0 0 0 0 0 0 0 0 0 0 0 12 26 23 8 8 8 9
0 0 0 0 0 0 0 0 0 0 0 0 0 0 0 0 0 0 0 0 0 0 0 0 1 16 22 20 18 13 12 53
0 0 0 0 0 0 0 0 0 0 0 0 0 0 0 0 0 0 0 0 0 0 0 1 10 24 23 29 21 17 52 10
0 0 0 0 0 0 0 0 0 0 0 0 0 0 0 0 0 0 0 0 0 0 0 10 25 30 26 58 68 70 67 91
0 0 0 0 0 0 0 0 0 0 0 0 0 0 0 0 0 0 0 0 0 0 12 28 65 72 98 139 148 85 36 120
0 0 0 0 0 0 0 0 0 0 0 0 0 0 0 0 0 0 0 0 0 0 19 67 126 116 157 176 220 197 194 222
1 0 0 0 0 0 0 0 0 0 0 0 0 0 0 0 0 0 0 0 0 0 14 69 124 219 233 252 351 448 483 424
3 0 0 0 0 0 0 0 0 0 0 0 0 0 0 0 0 0 0 0 0 0 2 49 41 113 191 294 332 355 350 375
0 0 0 0 0 0 0 0 0 0 0 0 0 0 0 0 0 0 0 0 0 0 0 26 162 109 276 477 505 353 171 68
0 0 0 0 0 0 0 0 0 0 0 0 0 0 0 0 0 0 0 0 0 0 0 0 87 236 246 331 108 268 146 73
0 0 0 0 0 0 0 0 0 0 0 0 0 0 0 0 0 0 0 0 0 0 0 0 52 341 371 368 107 9 34 57
0 0 0 0 0 0 0 0 0 0 0 0 0 0 0 0 0 0 0 0 0 0 0 0 230 196 732 527 131 439 140 214
0 0 0 0 0 0 0 0 0 1 0 0 0 0 0 0 0 0 0 0 0 0 0 15 194 85 286 585 260 268 533 393
CIN
-0 -0 -0 -0 -0 -0 -0 -0 -0 -0 -0 -0 -0 -0 -0 -0 -0 -0 -0 -0 -0 -41 -4 -2 -1 -2 -4 -1 -1 -0 -0 -0
-0 -0 -0 -0 -0 -0 -0 -0 -0 -0 -0 -0 -0 -0 -0 -0 -0 -0 -0 -0 -0 -34 -43 -0 -0 -0 -0 -1 -1 -0 -0 -0
-0 -0 -0 -0 -0 -0 -0 -0 -0 -0 -0 -0 -0 -0 -0 -0 -0 -0 -0 -0 -0 -76 -42 -8 -2 -0 -0 -0 -0 -0 -0 -2
-0 -0 -0 -0 -0 -0 -0 -0 -0 -0 -0 -0 -0 -0 -0 -0 -0 -0 -0 -0 -0 -25 -31 -42 -12 -9 -15 -17 -14 -9 -6 -6
-0 -0 -0 -0 -0 -0 -0 -0 -0 -0 -0 -0 -0 -0 -0 -0 -0 -0 -0 -0 -0 -0 -0 -0 -0 -0 -0 -0 -0 -16 -11 -5
-0 -0 -0 -0 -0 -0 -0 -0 -0 -0 -0 -0 -0 -0 -0 -0 -0 -0 -0 -0 -0 -0 -0 -0 -0 -0 -0 -0 -0 -0 -0 -0
-0 -0 -0 -0 -0 -0 -0 -0 -0 -0 -0 -0 -0 -0 -0 -0 -0 -0 -0 -0 -0 -0 -0 -0 -0 -0 -0 -0 -0 -0 -0 -0
-0 -0 -0 -0 -0 -0 -0 -0 -0 -0 -0 -0 -0 -0 -0 -0 -0 -0 -0 -0 -0 -0 -0 -0 -0 -0 -0 -0 -0 -0 -0 -0
-0 -0 -0 -0 -0 -0 -0 -0 -0 -0 -0 -0 -0 -0 -0 -0 -0 -0 -0 -0 -0 -0 -0 -0 -0 -0 -0 -0 -0 -0 -0 -25
-0 -0 -0 -0 -0 -0 -0 -0 -0 -0 -0 -0 -0 -0 -0 -0 -0 -0 -0 -0 -0 -0 -0 -0 -0 -0 -0 -0 -0 -0 -0 -0
-0 -0 -0 -0 -0 -0 -0 -0 -0 -0 -0 -0 -0 -0 -0 -0 -0 -0 -0 -0 -0 -0 -0 -0 -0 -0 -0 -0 -2 -4 -9 -4
-0 -0 -0 -0 -0 -0 -0 -0 -0 -0 -0 -0 -0 -0 -0 -0 -0 -0 -0 -0 -0 -0 -0 -0 -0 -0 -0 -0 -0 -1 -22 -2
-0 -0 -0 -0 -0 -0 -0 -0 -0 -0 -0 -0 -0 -0 -0 -0 -0 -0 -0 -0 -0 -0 -0 -55 -24 -37 -19 -0 -0 -0 -0 -0
-1 -0 -0 -0 -0 -0 -0 -0 -0 -0 -0 -0 -0 -0 -0 -0 -0 -0 -0 -0 -0 -0 -0 -78 -20 -6 -4 -0 -0 -0 -0 -0
-0 -0 -0 -0 -0 -0 -0 -0 -0 -0 -0 -0 -0 -0 -0 -0 -0 -0 -0 -0 -0 -0 -0 -92 -7 -19 -9 -0 -0 -4 -0 -0
-0 -0 -0 -0 -0 -0 -0 -0 -0 -0 -0 -0 -0 -0 -0 -0 -0 -0 -0 -0 -0 -0 -0 -48 -30 -10 -2 -0 -0 -0 -0 -12
-0 -0 -0 -0 -0 -0 -0 -0 -0 -0 -0 -0 -0 -0 -0 -0 -0 -0 -0 -0 -0 -0 -0 -0 -45 -0 -0 -0 -2 -0 -1 -0
-0 -0 -0 -0 -0 -0 -0 -0 -0 -0 -0 -0 -0 -0 -0 -0 -0 -0 -0 -0 -0 -0 -0 -0 -93 -0 -0 -0 -9 -23 -6 -0
-0 -0 -0 -0 -0 -0 -0 -0 -0 -0 -0 -0 -0 -0 -0 -0 -0 -0 -0 -0 -0 -0 -0 -0 -17 -0 -0 -0 -4 -1 -0 -0
-0 -0 -0 -0 -0 -0 -0 -0 -0 -89 -0 -0 -0 -0 -0 -0 -0 -0 -0 -0 -0 -0 -0 -26 -12 -2 -0 -0 -0 -0 -0 -0
Wind_Speed
5 6 9 6 4 5 3 6 6 4 4 1 1 3 1 5 6 6 5 5 6 4 13 16 15 13 13 13 14 15 16 16
10 8 2 7 9 6 6 5 7 5 5 3 2 5 3 3 5 5 5 4 3 2 10 12 13 13 13 14 13 15 17 19
9 8 5 7 9 9 9 7 4 5 3 2 4 3 5 3 3 6 7 5 7 4 7 10 11 13 13 13 14 15 19 20
12 3 4 7 6 7 8 7 5 5 5 3 4 8 4 3 1 2 3 3 4 5 1 5 7 9 9 9 11 12 14 16
11 11 9 4 5 8 7 8 7 1 6 3 8 5 5 4 3 3 2 3 4 5 5 5 1 5 8 9 11 13 15 16
12 11 10 3 3 5 8 8 6 5 6 5 8 9 7 6 5 4 4 5 6 6 8 6 7 4 9 12 12 13 14 14
12 13 12 4 11 4 3 8 7 8 7 3 7 10 9 7 6 3 4 5 7 9 6 6 8 7 8 9 11 12 12 11
8 11 14 16 9 13 7 8 10 9 5 5 10 10 10 8 6 3 5 7 6 6 7 7 7 7 8 7 6 7 8 7
14 14 16 18 13 10 11 12 10 9 11 11 11 11 10 6 3 4 5 6 7 5 5 7 7 6 5 4 5 5 7 6
15 12 12 9 7 9 12 12 5 5 4 13 14 12 10 6 4 3 5 6 6 6 5 6 6 7 5 5 5 5 5 5
13 12 9 3 9 8 10 6 6 6 10 14 12 10 6 4 1 3 5 6 7 6 6 6 7 6 5 5 5 6 4 6
11 11 6 8 4 5 7 2 9 10 12 12 12 11 8 6 2 3 4 5 6 6 5 6 6 6 6 5 6 4 3 6
13 10 6 6 9 10 9 4 9 12 11 12 11 11 9 5 3 2 3 3 6 5 5 6 6 6 5 4 5 5 5 5
13 9 6 7 9 10 5 9 13 13 13 12 13 12 8 6 4 2 2 4 5 5 7 6 7 7 6 5 4 4 6 7
10 11 6 11 13 7 6 9 13 12 14 13 13 12 9 8 6 3 1 3 6 6 7 7 7 7 6 5 4 3 2 5
13 10 10 12 14 14 14 13 12 13 14 14 14 14 12 10 6 3 2 1 5 5 6 7 6 4 4 4 3 3 2 3
11 5 10 15 14 15 15 17 13 14 14 16 15 13 12 11 7 5 3 3 5 5 5 6 7 7 6 6 6 2 0 2
11 9 9 16 17 18 17 17 13 13 14 16 15 15 13 12 9 6 3 2 5 4 5 5 5 5 6 5 4 2 3 4
12 12 12 16 18 14 8 9 10 11 12 15 17 17 16 14 10 7 5 4 1 4 5 5 6 5 5 1 2 3 3 5
13 13 12 4 15 14 11 12 12 12 12 13 16 17 16 15 12 9 6 5 2 2 4 4 6 6 7 4 4 4 3 3
Wind_Direction
250 257 266 333 18 320 358 180 211 213 278 4 109 154 102 93 159 200 224 212 228 210 218 228 234 245 248 254 260 258 260 264
254 257 45 299 325 320 282 199 224 256 243 153 93 149 149 142 187 229 247 264 158 219 251 253 254 258 265 269 273 271 271 270
250 263 289 285 298 295 265 249 210 220 265 276 181 147 164 173 207 254 269 284 265 170 248 253 259 265 274 280 288 285 281 278
255 257 284 310 318 276 255 263 130 234 265 280 113 189 169 178 193 303 285 262 274 155 244 315 313 321 333 330 310 298 296 292
292 279 284 2 337 258 279 264 230 262 260 47 196 165 181 164 165 187 168 233 258 289 290 241 331 347 329 318 307 302 296 291
259 276 299 11 275 292 262 275 79 192 251 248 181 172 176 198 185 202 207 282 278 259 290 297 300 306 328 314 307 302 294 290
267 278 292 281 279 157 312 244 221 195 264 44 153 169 190 204 219 261 275 277 288 299 310 292 292 300 293 288 303 290 274 271
284 294 285 294 278 295 223 212 229 222 199 192 177 184 206 215 240 261 296 311 315 319 308 292 280 288 283 296 310 300 286 284
272 270 292 288 286 260 255 262 247 244 208 200 196 200 220 230 294 320 322 294 332 320 300 289 304 311 297 308 282 280 269 272
270 292 290 277 272 249 242 273 358 237 222 192 200 202 210 216 228 296 323 318 328 329 298 291 304 297 319 270 306 269 296 288
269 274 260 270 244 277 268 283 228 231 195 201 203 201 193 196 198 303 314 345 332 325 308 295 289 296 294 291 293 321 280 277
265 251 210 237 224 247 290 263 223 216 209 205 202 195 188 192 195 276 330 338 334 321 308 288 286 289 296 279 290 285 292 262
234 217 224 243 245 253 282 200 237 227 218 206 199 194 202 183 182 277 320 334 339 306 298 293 297 291 290 287 278 284 274 251
192 201 160 225 269 271 287 217 233 223 217 205 200 196 190 183 189 221 298 328 339 314 305 311 304 293 293 310 289 270 268 272
233 197 194 217 277 282 298 255 261 235 221 210 197 198 187 188 191 191 225 325 328 327 315 329 303 301 303 295 271 262 279 297
257 184 224 252 255 270 277 249 256 252 228 216 207 198 186 190 185 181 205 263 301 305 317 335 298 280 341 321 335 13 57 327
253 271 264 275 285 287 281 274 254 253 224 217 208 192 180 182 184 184 207 246 281 320 339 343 334 345 354 5 29 29 324 275
254 267 278 289 285 293 288 270 262 243 222 213 199 188 181 180 186 187 188 230 268 308 345 342 341 350 343 11 22 16 333 346
260 293 273 264 271 284 288 243 244 241 228 206 199 188 182 181 184 178 181 195 237 345 345 0 342 37 20 97 106 104 28 36
259 269 283 349 294 293 269 264 229 223 216 207 195 188 180 179 179 177 167 173 165 16 12 55 15 42 15 42 24 16 26 93